"2010-04-08 00:00:00",6220,4.503,144.1,13.61,0.757,8.78,102.438,5.522,6.851,37.41,0,110.3,13.34,6.29,106.1
"2010-04-08 00:00:30",6221,3.1,137.7,28.42,1.533,7.522,102.4361,5.517,6.794,37.15,0,110.3,13.34,6.29,99.7
"2010-04-08 00:01:00",6222,0.377,62.52,74.96,0.316,3.34,102.4322,5.507,6.548,36.92,0,110.3,13.37,6.28,24.5
"2010-04-08 00:01:30",6223,1.407,93,5.299,0.266,3.011,102.4314,5.505,6.523,36.7,0,110.3,13.37,6.28,55.0
"2010-04-08 00:02:00",6224,1.64,92.9,9.08,0.155,3.366,102.4387,5.524,6.538,36.51,0,110.3,13.37,6.29,54.9
"2010-04-08 00:02:30",6225,2.024,105,7.278,1.057,5.115,102.4438,5.537,6.715,36.62,0,110.3,13.34,6.31,67.0
"2010-04-08 00:03:00",6226,1.98,113.3,3.52,1.183,4.514,102.447,5.545,6.584,36.45,0,110.3,13.34,6.32,75.3
"2010-04-08 00:03:30",6227,1.16,113.6,3.542,0.115,3.929,102.4476,5.546,6.547,36.36,0,110.3,13.38,6.32,75.6
"2010-04-08 00:04:00",6228,2.062,127.9,13.6,1.288,5.663,102.4479,5.547,6.767,36.55,0,110.3,13.34,6.32,89.9
"2010-04-08 00:04:30",6229,3.45,138.6,9.77,0.739,8.66,102.4522,5.558,6.914,36.67,0,110.3,13.34,6.33,100.6
"2010-04-08 00:05:00",6230,2.466,136.5,11.25,1.363,7.231,102.4539,5.562,6.815,36.52,0,110.3,13.34,6.33,98.5
"2010-04-08 00:05:30",6231,0.275,108.3,19.97,0.188,3.178,102.4706,5.605,6.623,36.24,0,110.3,13.38,6.38,70.3
"2010-04-08 00:06:00",6232,0.392,93.8,8.9,0.139,2.511,102.4884,5.65,6.637,36.13,0,110.3,13.37,6.42,55.8
"2010-04-08 00:06:30",6233,0.747,98.7,3.298,0.136,2.808,102.4924,5.661,6.648,36.09,0,110.3,13.37,6.43,60.7
"2010-04-08 00:07:00",6234,1.015,82,13.48,0.163,3.257,102.4938,5.664,6.658,36.05,0,110.3,13.34,6.44,44.0
"2010-04-08 00:07:30",6235,1.941,85,13.76,1.337,5.696,102.4947,5.667,6.847,36.17,0,110.3,13.34,6.44,47.0
"2010-04-08 00:08:00",6236,1.027,87.9,8.55,0.75,3.734,102.4967,5.672,6.687,35.96,0,110.2,13.34,6.44,49.9
"2010-04-08 00:08:30",6237,0.784,77,8.5,0.136,3.642,102.4993,5.678,6.72,35.9,0,110.2,13.37,6.45,39.0
"2010-04-08 00:09:00",6238,1.973,97.7,12.31,1.368,6.505,102.5145,5.717,6.915,36.03,0,110.2,13.34,6.49,59.7
"2010-04-08 00:09:30",6239,2.422,96.7,9.58,1.358,7.159,102.527,5.749,7.023,36.07,0,110.2,13.34,6.52,58.7
"2010-04-08 00:10:00",6240,2.552,71.01,7.651,1.229,7.173,102.5323,5.763,6.974,35.94,0,110.3,13.34,6.53,33.0
"2010-04-08 00:10:30",6241,1.035,76.38,18.99,1.116,3.562,102.5352,5.77,6.779,35.7,0,110.3,13.34,6.54,38.4
"2010-04-08 00:11:00",6242,0.676,88.2,8.62,0.075,2.919,102.5366,5.774,6.791,35.67,0,110.3,13.38,6.55,50.2
"2010-04-08 00:11:30",6243,1.375,97.5,6.386,1.068,4.549,102.5369,5.774,6.862,35.69,0,110.2,13.34,6.55,59.5
"2010-04-08 00:12:00",6244,1.105,85.6,24.08,1.232,4.283,102.5363,5.773,6.843,35.61,0,110.2,13.34,6.55,47.6
"2010-04-08 00:12:30",6245,1.198,37.28,14.2,1.207,5.561,102.5372,5.775,6.949,35.69,0,110.2,13.34,6.55,359.3
"2010-04-08 00:13:00",6246,0.18,51.68,14.24,0.094,3.5,102.5381,5.777,6.813,35.61,0,110.2,13.38,6.55,13.7
"2010-04-08 00:13:30",6247,0.049,69.64,17.11,0.054,3.485,102.5381,5.777,6.845,35.63,0,110.2,13.38,6.55,31.6
"2010-04-08 00:14:00",6248,1.571,58.96,20.44,1.344,6.141,102.5378,5.777,7.089,35.89,0,110.2,13.35,6.55,21.0
"2010-04-08 00:14:30",6249,1.206,66.44,17.36,1.381,5.332,102.5378,5.777,7.038,35.86,0,110.2,13.35,6.55,28.4
"2010-04-08 00:15:00",6250,0.542,43.28,23.41,0.7,3.984,102.5375,5.776,6.985,35.8,0,110.2,13.35,6.55,5.3
"2010-04-08 00:15:30",6251,1.37,18.56,10.04,1.358,4.585,102.5378,5.777,6.871,35.63,0,110.3,13.34,6.55,340.6
"2010-04-08 00:16:00",6252,0.212,18.25,7.313,0.109,2.701,102.5378,5.777,6.848,35.64,0,110.2,13.38,6.55,340.2
"2010-04-08 00:16:30",6253,0.299,9.97,6.843,0.075,2.808,102.5386,5.779,6.866,35.67,0,110.2,13.38,6.55,332.0
"2010-04-08 00:17:00",6254,0.226,10.06,8.7,0.108,3.135,102.5482,5.803,6.863,35.64,0,110.2,13.38,6.58,332.1
"2010-04-08 00:17:30",6255,1.402,35.19,13.09,1.438,5.676,102.5598,5.833,6.994,35.72,0,110.2,13.35,6.61,357.2
"2010-04-08 00:18:00",6256,0.794,21.99,5.897,0.882,4.726,102.5654,5.847,7.041,35.78,0,110.2,13.35,6.62,344.0
"2010-04-08 00:18:30",6257,1.198,20.79,5.002,1.082,5.024,102.5719,5.864,6.956,35.63,0,110.3,13.35,6.64,342.8
"2010-04-08 00:19:00",6258,2.641,20.53,8.99,1.175,7.744,102.5716,5.863,7.188,35.82,0,110.2,13.35,6.64,342.5
"2010-04-08 00:19:30",6259,1.56,24.92,6.255,1.101,5.129,102.5719,5.864,7.036,35.65,0,110.2,13.35,6.64,346.9
"2010-04-08 00:20:00",6260,1.086,22.78,9.59,0.784,4.347,102.5719,5.864,7.116,35.68,0,110.2,13.35,6.64,344.8
"2010-04-08 00:20:30",6261,1.46,40.28,7.932,1.355,4.47,102.5807,5.886,6.946,35.46,0,110.3,13.34,6.66,2.3
"2010-04-08 00:21:00",6262,0.635,14.16,4.968,0.155,2.837,102.5967,5.927,6.989,35.42,0,110.2,13.38,6.70,336.2
"2010-04-08 00:21:30",6263,0.548,27.92,6.619,0.058,3.078,102.6021,5.941,6.97,35.35,0,110.2,13.38,6.71,349.9
"2010-04-08 00:22:00",6264,1.301,38.69,6.518,1.08,4.186,102.6024,5.942,6.976,35.32,0,110.2,13.35,6.71,0.7
"2010-04-08 00:22:30",6265,1.289,44.73,5.84,0.715,4.655,102.6052,5.949,7.09,35.38,0,110.2,13.34,6.72,6.7
"2010-04-08 00:23:00",6266,2.979,52.13,10.42,1.175,8.28,102.6055,5.95,7.287,35.55,0,110.2,13.34,6.72,14.1
"2010-04-08 00:23:30",6267,2.737,51.64,6.747,1.205,7.235,102.6046,5.947,7.2,35.64,0,110.2,13.34,6.72,13.6
"2010-04-08 00:24:00",6268,1.974,42.41,6.03,1.231,5.634,102.6035,5.945,7.033,35.6,0,110.2,13.34,6.72,4.4
"2010-04-08 00:24:30",6269,0.775,50.46,7.329,0.537,3.565,102.5967,5.927,7.121,35.7,0,110.2,13.34,6.70,12.5
"2010-04-08 00:25:00",6270,1.489,61.2,10.07,1.291,5.308,102.5857,5.899,7.046,35.59,0,110.2,13.34,6.67,23.2
"2010-04-08 00:25:30",6271,0.152,51.83,55.82,0.226,3.248,102.5719,5.864,6.985,35.5,0,110.2,13.37,6.64,13.8
"2010-04-08 00:26:00",6272,-0.013,344.4,46.89,0.078,3.3,102.5716,5.863,6.975,35.55,0,110.2,13.38,6.64,306.4
"2010-04-08 00:26:30",6273,0.057,328.9,15.24,0.112,3.703,102.5567,5.825,6.958,35.62,0,110.2,13.38,6.60,290.9
"2010-04-08 00:27:00",6274,0.8,349.3,16.7,1.014,5.767,102.5381,5.777,7.109,35.85,0,110.2,13.34,6.55,311.3
"2010-04-08 00:27:30",6275,2.322,21.82,42.92,0.991,7.886,102.5378,5.777,7.159,35.97,0,110.2,13.34,6.55,343.8
"2010-04-08 00:28:00",6276,2.186,18.22,28.4,1.2,7.362,102.5206,5.733,7.131,36.02,0,110.2,13.35,6.50,340.2
"2010-04-08 00:28:30",6277,0.349,51.28,40.79,0.806,3.374,102.5042,5.691,6.878,35.87,0,110.2,13.35,6.46,13.3
"2010-04-08 00:29:00",6278,0.544,62.94,17.59,0.147,2.746,102.5037,5.689,6.846,35.94,0,110.2,13.39,6.46,24.9
"2010-04-08 00:29:30",6279,0.249,65.29,12.95,0.119,2.967,102.4839,5.639,6.936,36.06,0,110.2,13.39,6.41,27.3
"2010-04-08 00:30:00",6280,1.371,46.22,27.32,1.197,5.325,102.4707,5.605,6.892,36.1,0,110.2,13.35,6.38,8.2
"2010-04-08 00:30:30",6281,0.566,46.94,5.967,0.117,3.259,102.4713,5.607,6.786,36.15,0,110.2,13.39,6.38,8.9
"2010-04-08 00:31:00",6282,0.433,87.6,27.02,0.094,3.243,102.4701,5.604,6.778,36.17,0,110.2,13.39,6.38,49.6
"2010-04-08 00:31:30",6283,0.272,101.1,17.13,0.094,3.569,102.4589,5.575,6.74,36.24,0,110.2,13.39,6.35,63.1
"2010-04-08 00:32:00",6284,1.28,126.2,12.16,1.225,5.208,102.444,5.537,6.747,36.32,0,110.2,13.35,6.31,88.2
"2010-04-08 00:32:30",6285,1.864,161.7,9.8,1.2,7.243,102.4409,5.529,7.004,36.65,0,110.2,13.35,6.30,123.7
"2010-04-08 00:33:00",6286,1.885,148.7,34.45,1.195,7.521,102.44,5.527,6.96,36.68,0,110.2,13.35,6.30,110.7
"2010-04-08 00:33:30",6287,0.563,145.5,19.18,1.066,4.124,102.4314,5.505,6.673,36.54,0,110.2,13.35,6.28,107.5
"2010-04-08 00:34:00",6288,0.075,160,8.92,0.066,2.712,102.411,5.453,6.666,36.59,0,110.2,13.39,6.22,122.0
"2010-04-08 00:34:30",6289,0.18,91.5,62.64,0.15,2.712,102.4111,5.453,6.647,36.64,0,110.2,13.39,6.22,53.5
"2010-04-08 00:35:00",6290,0.245,346.3,13.04,0.177,2.874,102.4125,5.457,6.634,36.69,0,110.2,13.39,6.23,308.3
"2010-04-08 00:35:30",6291,1.505,359.5,12.84,1.238,5.309,102.4125,5.457,6.805,36.89,0,110.2,13.36,6.23,321.5
"2010-04-08 00:36:00",6292,0.117,351.9,24.19,0.108,3.143,102.4131,5.458,6.604,36.78,0,110.2,13.39,6.23,313.9
"2010-04-08 00:36:30",6293,0.1,5.946,18.55,0.095,3.122,102.414,5.46,6.611,36.8,0,110.2,13.39,6.23,327.9
"2010-04-08 00:37:00",6294,-0.063,347.1,54.39,0.06,3.3,102.4134,5.459,6.586,36.84,0,110.2,13.39,6.23,309.1
"2010-04-08 00:37:30",6295,0.088,304,38.96,0.13,3.429,102.4163,5.466,6.599,36.88,0,110.2,13.39,6.24,266.0
"2010-04-08 00:38:00",6296,0.339,166.2,48.64,0.776,4.459,102.4166,5.467,6.703,37.03,0,110.1,13.36,6.24,128.2
"2010-04-08 00:38:30",6297,2.496,139.7,7.947,1.069,8.19,102.4203,5.477,6.801,37.13,0,110.2,13.36,6.25,101.7
"2010-04-08 00:39:00",6298,2.308,135.8,8.41,1.185,7.768,102.4223,5.482,6.836,37.2,0,110.2,13.35,6.25,97.8
"2010-04-08 00:39:30",6299,0.813,127.3,4.677,0.522,3.812,102.4209,5.478,6.634,37,0,110.2,13.35,6.25,89.3
"2010-04-08 00:40:00",6300,0.493,126.4,4.087,0.081,3.302,102.4226,5.482,6.594,36.92,0,110.2,13.39,6.25,88.4
"2010-04-08 00:40:30",6301,0.48,110.6,3.865,0.062,3.178,102.4455,5.541,6.603,36.91,0,110.2,13.39,6.31,72.6
"2010-04-08 00:41:00",6302,0.537,96.7,7.794,0.079,4.139,102.454,5.563,6.738,37,0,110.2,13.39,6.33,58.7
"2010-04-08 00:41:30",6303,1.669,96.2,9.31,1.269,6.079,102.46,5.578,6.678,36.91,0,110.2,13.35,6.35,58.2
"2010-04-08 00:42:00",6304,0.52,101.4,11.7,0.07,3.866,102.4582,5.573,6.636,36.84,0,110.2,13.39,6.34,63.4
"2010-04-08 00:42:30",6305,0.684,86.6,14.43,0.14,3.677,102.4599,5.578,6.654,36.85,0,110.2,13.39,6.35,48.6
"2010-04-08 00:43:00",6306,0.605,83.4,13.07,0.173,4.025,102.4763,5.62,6.656,36.89,0,110.2,13.39,6.39,45.4
"2010-04-08 00:43:30",6307,1.709,83.4,8.55,1.232,6.438,102.4842,5.64,6.847,37.02,0,110.2,13.35,6.41,45.4
"2010-04-08 00:44:00",6308,3.599,75.63,6.604,0.527,9.25,102.4941,5.665,7.021,37.13,0,110.2,13.35,6.44,37.6
"2010-04-08 00:44:30",6309,1.951,82,11.93,1.325,6.98,102.4981,5.675,6.799,36.84,0,110.2,13.36,6.45,44.0
"2010-04-08 00:45:00",6310,0.758,79.72,7.191,0.093,4.133,102.4999,5.68,6.714,36.66,0,110.2,13.39,6.45,41.7
"2010-04-08 00:45:30",6311,0.551,107.2,28.37,0.261,3.395,102.5007,5.682,6.71,36.6,0,110.2,13.36,6.45,69.2
"2010-04-08 00:46:00",6312,0.742,138.6,11.25,0.898,4.361,102.5019,5.685,6.911,36.71,0,110.2,13.36,6.46,100.6
"2010-04-08 00:46:30",6313,0.89,129.4,22.6,1.299,4.615,102.5036,5.689,6.733,36.48,0,110.2,13.36,6.46,91.4
"2010-04-08 00:47:00",6314,-0.085,142.3,41.76,0.034,3.599,102.5048,5.692,6.739,36.46,0,110.2,13.39,6.46,104.3
"2010-04-08 00:47:30",6315,-0.016,222.8,9.87,0.063,3.023,102.5045,5.692,6.739,36.51,0,110.2,13.39,6.46,184.8
"2010-04-08 00:48:00",6316,0.019,238.5,10.86,0.064,2.837,102.5051,5.693,6.723,36.6,0,110.2,13.39,6.47,200.5
"2010-04-08 00:48:30",6317,0.167,250.9,9.4,0.091,2.932,102.5051,5.693,6.721,36.64,0,110.2,13.4,6.47,212.9
"2010-04-08 00:49:00",6318,0.351,261,6.391,0.066,3.433,102.5051,5.693,6.727,36.67,0,110.2,13.4,6.47,223.0
"2010-04-08 00:49:30",6319,0.663,263.8,16.1,0.832,4.135,102.507,5.698,6.731,36.67,0,110.2,13.36,6.47,225.8
"2010-04-08 00:50:00",6320,2.087,261,10.28,1.226,7.413,102.5152,5.719,6.975,36.9,0,110.2,13.36,6.49,223.0
"2010-04-08 00:50:30",6321,1.981,255.2,20.42,1.25,7.328,102.5254,5.745,6.994,36.86,0,110.2,13.36,6.52,217.2
"2010-04-08 00:51:00",6322,0.815,231.3,7.672,0.969,3.951,102.5195,5.73,6.741,36.58,0,110.2,13.36,6.50,193.3
"2010-04-08 00:51:30",6323,0.473,219.4,3.118,0.08,2.909,102.5138,5.715,6.754,36.54,0,110.2,13.39,6.49,181.4
"2010-04-08 00:52:00",6324,1.896,211.3,7.617,1.3,5.032,102.5231,5.739,6.902,36.72,0,110.2,13.36,6.51,173.3
"2010-04-08 00:52:30",6325,0.918,195.4,6.801,0.261,3.935,102.5271,5.749,6.909,36.67,0,110.2,13.4,6.52,157.4
"2010-04-08 00:53:00",6326,1.798,225.3,10.13,0.981,4.37,102.5288,5.754,6.798,36.54,0,110.2,13.36,6.53,187.3
"2010-04-08 00:53:30",6327,1.109,220,7.115,0.175,3.536,102.5271,5.749,6.772,36.61,0,110.2,13.4,6.52,182.0
"2010-04-08 00:54:00",6328,1.67,212.7,6.092,1.151,4.881,102.5234,5.74,6.762,36.64,0,110.2,13.36,6.51,174.7
"2010-04-08 00:54:30",6329,2.268,215.7,6.784,1.187,6.523,102.5231,5.739,6.966,36.87,0,110.2,13.36,6.51,177.7
"2010-04-08 00:55:00",6330,2.597,201.5,11.2,1.205,8.08,102.5135,5.715,7.043,36.87,0,110.2,13.36,6.49,163.5
"2010-04-08 00:55:30",6331,1.667,195.4,7.525,1.301,5.93,102.5065,5.697,6.867,36.68,0,110.2,13.36,6.47,157.4
"2010-04-08 00:56:00",6332,0.711,198.7,6.111,0.086,3.436,102.5051,5.693,6.766,36.58,0,110.2,13.39,6.47,160.7
"2010-04-08 00:56:30",6333,1.591,194.3,12.31,1.302,5.613,102.5051,5.693,6.877,36.69,0,110.2,13.35,6.47,156.3
"2010-04-08 00:57:00",6334,0.966,205.7,7.63,0.782,4.145,102.4992,5.678,6.891,36.78,0,110.2,13.35,6.45,167.7
"2010-04-08 00:57:30",6335,1.262,211.3,5.992,0.955,4.203,102.4723,5.61,6.739,36.68,0,110.2,13.35,6.38,173.3
"2010-04-08 00:58:00",6336,0.788,227,6.36,0.142,3.348,102.4492,5.55,6.685,36.79,0,110.2,13.39,6.32,189.0
"2010-04-08 00:58:30",6337,0.752,217.7,7.457,0.473,3.745,102.4374,5.52,6.685,37,0,110.2,13.36,6.29,179.7
"2010-04-08 00:59:00",6338,1.845,208.9,13,1.316,6.518,102.4374,5.52,6.722,37.19,0,110.2,13.36,6.29,170.9
"2010-04-08 00:59:30",6339,0.99,202.3,9.19,0.872,4.889,102.41,5.45,6.685,37.38,0,110.2,13.36,6.22,164.3
"2010-04-08 01:00:00",6340,2.4,207.9,5.265,1.222,7.105,102.3716,5.352,6.645,37.75,0,110.2,13.36,6.12,169.9
"2010-04-08 01:00:30",6341,0.997,228.6,19.29,1.048,5.156,102.3457,5.286,6.637,37.91,0,110.2,13.36,6.06,190.6
"2010-04-08 01:01:00",6342,0.557,240.8,8.7,0.7,3.868,102.3254,5.234,6.406,37.88,0,110.2,13.36,6.00,202.8
"2010-04-08 01:01:30",6343,0.883,220.5,13.25,1.092,4.119,102.302,5.174,6.367,38.21,0,110.2,13.36,5.94,182.5
"2010-04-08 01:02:00",6344,1.767,222.9,9.39,1.348,5.719,102.302,5.174,6.465,38.46,0,110.2,13.36,5.94,184.9
"2010-04-08 01:02:30",6345,0.706,234.9,10.9,0.093,3.557,102.302,5.174,6.285,38.29,0,110.2,13.4,5.94,196.9
"2010-04-08 01:03:00",6346,1.528,223.4,12.48,1.194,5.597,102.302,5.174,6.377,38.37,0,110.2,13.36,5.94,185.4
"2010-04-08 01:03:30",6347,2.134,212.3,5.618,1.305,6.06,102.302,5.174,6.377,38.36,0,110.2,13.37,5.94,174.3
"2010-04-08 01:04:00",6348,2.087,203.7,9.43,1.236,6.014,102.302,5.174,6.394,38.36,0,110.2,13.37,5.94,165.7
"2010-04-08 01:04:30",6349,2.426,214.9,5.271,1.336,6.385,102.2955,5.158,6.35,38.31,0,110.2,13.37,5.93,176.9
"2010-04-08 01:05:00",6350,2.543,210.3,8.71,1.396,6.917,102.2853,5.132,6.405,38.38,0,110.1,13.37,5.90,172.3
"2010-04-08 01:05:30",6351,1.965,214.4,5.481,1.205,5.321,102.2692,5.091,6.293,38.27,0,110.2,13.37,5.86,176.4
"2010-04-08 01:06:00",6352,2.529,223,7.237,1.368,6.407,102.2687,5.089,6.373,38.35,0,110.1,13.37,5.86,185.0
"2010-04-08 01:06:30",6353,2.332,224.7,8.38,1.17,6.105,102.2684,5.089,6.334,38.37,0,110.1,13.37,5.86,186.7
"2010-04-08 01:07:00",6354,1.708,221.1,6.306,0.896,5.073,102.2493,5.04,6.351,38.42,0,110.1,13.37,5.81,183.1
"2010-04-08 01:07:30",6355,1.865,225.3,6.835,1.048,5.055,102.2449,5.029,6.181,38.34,0,110.1,13.37,5.80,187.3
"2010-04-08 01:08:00",6356,2.33,219.9,10.28,1.33,6.289,102.2484,5.037,6.311,38.53,0,110.1,13.38,5.81,181.9
"2010-04-08 01:08:30",6357,1.895,210.9,8.76,1.109,6.268,102.2483,5.037,6.363,38.65,0,110.1,13.38,5.81,172.9
"2010-04-08 01:09:00",6358,2.456,211,9.75,1.19,5.995,102.2363,5.007,6.204,38.56,0,110.1,13.38,5.78,173.0
"2010-04-08 01:09:30",6359,2.469,198.8,6.872,1.354,6.342,102.233,4.998,6.181,38.66,0,110.1,13.38,5.77,160.8
"2010-04-08 01:10:00",6360,2.068,199.8,5.794,1.119,6.426,102.2313,4.994,6.26,38.85,0,110.1,13.38,5.76,161.8
"2010-04-08 01:10:30",6361,2.001,201.9,6.386,1.239,6.159,102.2068,4.931,6.158,38.83,0,110.1,13.38,5.70,163.9
"2010-04-08 01:11:00",6362,1.364,214.7,5.288,0.89,4.958,102.2011,4.917,6.167,38.94,0,110.1,13.38,5.69,176.7
"2010-04-08 01:11:30",6363,1.516,210.1,5.916,0.976,4.462,102.1955,4.902,6.003,38.85,0,110.1,13.38,5.67,172.1
"2010-04-08 01:12:00",6364,2.097,216.8,7.084,1.257,6.191,102.1704,4.838,6.129,39.08,0,110.1,13.38,5.61,178.8
"2010-04-08 01:12:30",6365,1.462,217.6,4.972,1.085,5.682,102.1667,4.829,6.09,39.12,0,110.1,13.38,5.60,179.6
"2010-04-08 01:13:00",6366,1.643,211.2,6.038,1.025,5.195,102.1424,4.767,5.983,39.13,0,110.1,13.38,5.54,173.2
"2010-04-08 01:13:30",6367,1.578,219.8,9.06,1.036,5.482,102.1334,4.744,6.108,39.32,0,110.1,13.38,5.51,181.8
"2010-04-08 01:14:00",6368,2.756,216,7.674,1.227,8.07,102.1162,4.7,6.141,39.42,0,110.1,13.38,5.47,178.0
"2010-04-08 01:14:30",6369,2.827,212.8,6.411,1.257,6.968,102.0996,4.657,5.971,39.35,0,110.1,13.38,5.43,174.8
"2010-04-08 01:15:00",6370,1.49,212.3,4.845,0.076,3.868,102.088,4.628,5.808,39.33,0,110.1,13.42,5.40,174.3
"2010-04-08 01:15:30",6371,2.467,217.8,10.26,1.315,5.911,102.0689,4.579,5.898,39.53,0,110.1,13.38,5.35,179.8
"2010-04-08 01:16:00",6372,2.408,218.7,9.42,1.314,6.224,102.0642,4.567,5.924,39.67,0,110.1,13.39,5.34,180.7
"2010-04-08 01:16:30",6373,1.678,219.7,7.625,0.974,5.605,102.0491,4.529,5.876,39.77,0,110.1,13.39,5.30,181.7
"2010-04-08 01:17:00",6374,2.159,223,5.464,1.126,6.171,102.0555,4.545,5.77,39.77,0,110.1,13.39,5.31,185.0
"2010-04-08 01:17:30",6375,3.289,225.8,5.542,1.1,7.868,102.0319,4.485,5.884,40,0,110,13.39,5.25,187.8
"2010-04-08 01:18:00",6376,3.175,225.3,6.045,1.233,7.677,102.0305,4.481,5.908,40.1,0,110,13.4,5.25,187.3
"2010-04-08 01:18:30",6377,2.11,220.6,4.094,1.08,5.075,102.0088,4.426,5.593,39.95,0,110,13.4,5.19,182.6
"2010-04-08 01:19:00",6378,2.061,220,6.061,1.035,5.098,101.9984,4.399,5.716,40.21,0,110,13.4,5.17,182.0
"2010-04-08 01:19:30",6379,2.167,217.2,6.552,0.972,4.98,101.9772,4.345,5.616,40.29,0,110,13.4,5.11,179.2
"2010-04-08 01:20:00",6380,2.421,215.7,6.755,1.163,6.098,101.9648,4.313,5.649,40.49,0,110,13.41,5.08,177.7
"2010-04-08 01:20:30",6381,2.927,216.3,5.695,1.228,6.933,101.9501,4.276,5.556,40.59,0,110,13.41,5.04,178.3
"2010-04-08 01:21:00",6382,3.379,223.3,6.982,1.256,8.14,101.9323,4.23,5.663,40.85,0,110,13.41,5.00,185.3
"2010-04-08 01:21:30",6383,3.456,223.4,6.47,1.193,8.02,101.9219,4.204,5.676,41,0,110,13.41,4.97,185.4
"2010-04-08 01:22:00",6384,2.114,212.9,6.273,0.867,5.084,101.8984,4.144,5.384,40.83,0,110,13.41,4.91,174.9
"2010-04-08 01:22:30",6385,1.874,206.6,3.208,0.493,4.689,101.8965,4.139,5.44,41.04,0,110,13.44,4.91,168.6
"2010-04-08 01:23:00",6386,2.9,211.8,6.656,1.232,5.655,101.881,4.099,5.36,41.08,0,110,13.41,4.87,173.8
"2010-04-08 01:23:30",6387,2.071,213.5,3.919,0.658,5.045,101.8686,4.068,5.395,41.21,0,110,13.42,4.83,175.5
"2010-04-08 01:24:00",6388,3.396,219.9,6.298,1.24,7.292,101.8673,4.064,5.425,41.29,0,110,13.42,4.83,181.9
"2010-04-08 01:24:30",6389,3.675,225.9,5.473,1.152,8.54,101.8545,4.032,5.559,41.51,0,110,13.42,4.80,187.9
"2010-04-08 01:25:00",6390,3.436,226.3,6.577,1.181,7.848,101.8551,4.033,5.39,41.42,0,110,13.42,4.80,188.3
"2010-04-08 01:25:30",6391,1.71,216.3,1.549,0.037,4.611,101.8522,4.026,5.275,41.39,0,110,13.46,4.79,178.3
"2010-04-08 01:26:00",6392,1.929,216.6,5.334,0.874,4.515,101.8327,3.976,5.172,41.33,0,110,13.42,4.74,178.6
"2010-04-08 01:26:30",6393,2.508,221.3,5.462,1.231,5.92,101.8299,3.969,5.263,41.54,0,110,13.42,4.73,183.3
"2010-04-08 01:27:00",6394,1.61,218.7,2.938,0.052,4.371,101.822,3.949,5.111,41.45,0,110,13.42,4.71,180.7
"2010-04-08 01:27:30",6395,2.28,227.9,7.178,1.103,6.215,101.7982,3.888,5.275,41.74,0,109.9,13.43,4.65,189.9
"2010-04-08 01:28:00",6396,3.284,234.2,7.354,1.248,7.955,101.796,3.882,5.248,41.81,0,110,13.43,4.65,196.2
"2010-04-08 01:28:30",6397,2.833,235.8,7.37,1.241,7.008,101.7909,3.869,5.199,41.96,0,109.9,13.42,4.63,197.8
"2010-04-08 01:29:00",6398,1.64,238.3,4.584,0.747,5.061,101.7762,3.832,5.189,42.13,0,109.9,13.42,4.60,200.3
"2010-04-08 01:29:30",6399,1.365,236,2.103,0.04,3.938,101.7621,3.796,4.976,42.11,0,109.9,13.46,4.56,198.0
"2010-04-08 01:30:00",6400,2.396,244.2,7.346,1.241,5.975,101.7596,3.789,5.098,42.27,0,109.9,13.42,4.55,206.2
"2010-04-08 01:30:30",6401,1.4,235.5,2.911,0.45,4.44,101.7415,3.743,4.959,42.22,0,109.9,13.43,4.51,197.5
"2010-04-08 01:31:00",6402,2.088,235.6,7.213,1.159,5.551,101.7302,3.714,4.955,42.3,0,109.9,13.43,4.48,197.6
"2010-04-08 01:31:30",6403,2.756,237.7,6.894,1.276,7.336,101.734,3.724,5.118,42.53,0,109.9,13.43,4.49,199.7
"2010-04-08 01:32:00",6404,2.668,242.7,6.589,1.212,7.235,101.7349,3.726,5.09,42.6,0,109.8,13.43,4.49,204.7
"2010-04-08 01:32:30",6405,2.301,232,7.592,1.168,5.562,101.7144,3.674,4.854,42.46,0,109.9,13.43,4.44,194.0
"2010-04-08 01:33:00",6406,1.355,227.8,1.355,0.046,4.147,101.7219,3.693,4.907,42.54,0,109.9,13.46,4.46,189.8
"2010-04-08 01:33:30",6407,2.26,231,5.83,1.266,5.949,101.7254,3.702,4.947,42.57,0,109.9,13.44,4.47,193.0
"2010-04-08 01:34:00",6408,1.302,227.3,3.723,0.47,4.729,101.7037,3.647,4.907,42.55,0,109.9,13.47,4.41,189.3
"2010-04-08 01:34:30",6409,2.308,233.9,6.403,1.266,6.102,101.6949,3.624,4.807,42.45,0,109.9,13.44,4.39,195.9
"2010-04-08 01:35:00",6410,2.443,239,6.818,1.255,6.887,101.6949,3.624,4.957,42.67,0,109.9,13.45,4.39,201.0
"2010-04-08 01:35:30",6411,2.249,237.4,5.849,1.275,6.322,101.6912,3.615,4.832,42.64,0,109.9,13.45,4.38,199.4
"2010-04-08 01:36:00",6412,1.924,240.2,8.4,1.154,6.458,101.6717,3.565,4.921,42.8,0,109.9,13.45,4.33,202.2
"2010-04-08 01:36:30",6413,1.483,237.9,6.777,0.888,4.334,101.661,3.538,4.701,42.66,0,109.9,13.45,4.30,199.9
"2010-04-08 01:37:00",6414,0.97,239.3,2.229,0.065,3.895,101.661,3.538,4.692,42.73,0,109.9,13.48,4.30,201.3
"2010-04-08 01:37:30",6415,1.806,242.8,6.206,1.275,5.69,101.6565,3.526,4.695,42.83,0,109.9,13.45,4.29,204.8
"2010-04-08 01:38:00",6416,1.856,245.6,6.497,1.255,6.375,101.6362,3.474,4.767,43,0,109.9,13.45,4.24,207.6
"2010-04-08 01:38:30",6417,1.939,248.2,6.993,1.313,6.574,101.6294,3.457,4.708,43.01,0,109.9,13.45,4.22,210.2
"2010-04-08 01:39:00",6418,2.525,253.6,7.086,1.232,7.465,101.6326,3.465,4.785,43.17,0,109.9,13.45,4.23,215.6
"2010-04-08 01:39:30",6419,1.417,249.3,5.694,1.068,5.839,101.6343,3.47,4.784,43.28,0,109.9,13.46,4.23,211.3
"2010-04-08 01:40:00",6420,1.801,250.5,6.313,1.247,5.535,101.6192,3.431,4.587,43.2,0,109.9,13.46,4.20,212.5
"2010-04-08 01:40:30",6421,1.983,253.2,8.38,1.237,5.84,101.6147,3.42,4.726,43.43,0,109.9,13.46,4.18,215.2
"2010-04-08 01:41:00",6422,0.883,236.7,3.041,0.035,3.574,101.6188,3.43,4.544,43.36,0,109.9,13.49,4.19,198.7
"2010-04-08 01:41:30",6423,1.777,242,11.09,1.183,5.278,101.6225,3.439,4.569,43.38,0,109.8,13.46,4.20,204.0
"2010-04-08 01:42:00",6424,1.386,246.3,4.915,0.995,5.102,101.6169,3.425,4.646,43.51,0,109.9,13.46,4.19,208.3
"2010-04-08 01:42:30",6425,2.871,249.2,5.547,1.162,7.72,101.5946,3.368,4.625,43.53,0,109.8,13.46,4.13,211.2
"2010-04-08 01:43:00",6426,2.882,244.6,6.939,1.189,7.724,101.5938,3.366,4.703,43.62,0,109.9,13.46,4.13,206.6
"2010-04-08 01:43:30",6427,1.581,240.1,4.217,0.972,5.228,101.5938,3.366,4.617,43.63,0,109.9,13.46,4.13,202.1
"2010-04-08 01:44:00",6428,1.911,239,5.286,1.191,5.515,101.5909,3.359,4.625,43.71,0,109.8,13.47,4.12,201.0
"2010-04-08 01:44:30",6429,1.674,233.3,4.67,0.985,4.16,101.5799,3.331,4.439,43.6,0,109.8,13.47,4.09,195.3
"2010-04-08 01:45:00",6430,1.309,233.9,1.143,0.07,3.617,101.5635,3.289,4.42,43.61,0,109.8,13.5,4.05,195.9
"2010-04-08 01:45:30",6431,1.919,231,5.06,1.1,5.447,101.5598,3.28,4.542,43.78,0,109.8,13.47,4.04,193.0
"2010-04-08 01:46:00",6432,2.648,229.1,7.182,1.28,6.438,101.5596,3.279,4.488,43.77,0,109.8,13.47,4.04,191.1
"2010-04-08 01:46:30",6433,3.283,230.5,6.097,1.161,7.975,101.5542,3.265,4.578,43.88,0,109.8,13.47,4.03,192.5
"2010-04-08 01:47:00",6434,2.727,228.8,7.014,1.289,7.36,101.5384,3.225,4.616,43.94,0,109.8,13.47,3.99,190.8
"2010-04-08 01:47:30",6435,3.055,235.2,7.698,1.182,7.087,101.5259,3.193,4.488,43.84,0,109.8,13.47,3.96,197.2
"2010-04-08 01:48:00",6436,2.049,226.8,5.473,1.114,5.76,101.5259,3.193,4.515,43.95,0,109.8,13.47,3.96,188.8
"2010-04-08 01:48:30",6437,1.827,221.2,5.404,0.941,4.423,101.5259,3.193,4.333,43.83,0,109.8,13.47,3.96,183.2
"2010-04-08 01:49:00",6438,1.77,221.7,4.416,0.978,4.509,101.5259,3.193,4.315,43.84,0,109.8,13.48,3.96,183.7
"2010-04-08 01:49:30",6439,1.961,223.1,4.894,1.098,5.789,101.5226,3.184,4.452,44.02,0,109.8,13.48,3.95,185.1
"2010-04-08 01:50:00",6440,3.24,231.2,6.597,1.123,8.34,101.5153,3.166,4.504,44.11,0,109.8,13.48,3.93,193.2
"2010-04-08 01:50:30",6441,2.592,228.3,6.504,1.283,7.196,101.5149,3.165,4.519,44.19,0,109.8,13.48,3.93,190.3
"2010-04-08 01:51:00",6442,2.264,226.5,6.054,1.21,6.422,101.5135,3.161,4.42,44.16,0,109.8,13.48,3.92,188.5
"2010-04-08 01:51:30",6443,1.591,224.1,5.439,0.794,4.915,101.5199,3.177,4.424,44.21,0,109.8,13.48,3.94,186.1